TimePDT,TemperatureF,Dew PointF,Humidity,Sea Level PressureIn,VisibilityMPH,Wind Direction,Wind SpeedMPH,Gust SpeedMPH,PrecipitationIn,Events,Conditions,WindDirDegrees,DateUTC
12:15 AM,42.8,37.4,81,30.22,10.0,Calm,Calm,-,N/A,,Overcast,0,2013-05-10 07:15:00
12:35 AM,42.8,37.4,81,30.22,10.0,Calm,Calm,-,N/A,,Overcast,0,2013-05-10 07:35:00
12:55 AM,42.8,37.4,81,30.22,10.0,Calm,Calm,-,N/A,,Overcast,0,2013-05-10 07:55:00
1:15 AM,42.8,37.4,81,30.22,10.0,Calm,Calm,-,N/A,,Mostly Cloudy,0,2013-05-10 08:15:00
1:35 AM,41.0,35.6,81,30.22,10.0,Calm,Calm,-,N/A,,Scattered Clouds,0,2013-05-10 08:35:00
1:55 AM,41.0,35.6,81,30.21,10.0,Calm,Calm,-,N/A,,Clear,0,2013-05-10 08:55:00
2:15 AM,39.2,33.8,81,30.21,10.0,Calm,Calm,-,N/A,,Clear,0,2013-05-10 09:15:00
2:35 AM,37.4,33.8,87,30.20,10.0,Calm,Calm,-,N/A,,Clear,0,2013-05-10 09:35:00
2:55 AM,37.4,33.8,87,30.21,10.0,Calm,Calm,-,N/A,,Clear,0,2013-05-10 09:55:00
3:15 AM,35.6,33.8,93,30.21,10.0,Calm,Calm,-,N/A,,Clear,0,2013-05-10 10:15:00
3:35 AM,35.6,32.0,87,30.21,10.0,Calm,Calm,-,N/A,,Clear,0,2013-05-10 10:35:00
3:55 AM,35.6,32.0,87,30.21,10.0,Calm,Calm,-,N/A,,Clear,0,2013-05-10 10:55:00
4:15 AM,33.8,32.0,93,30.21,10.0,Calm,Calm,-,N/A,,Clear,0,2013-05-10 11:15:00
4:35 AM,33.8,32.0,93,30.21,10.0,Calm,Calm,-,N/A,,Clear,0,2013-05-10 11:35:00
5:15 AM,33.8,32.0,93,30.21,10.0,East,4.6,-,N/A,,Clear,80,2013-05-10 12:15:00
5:35 AM,33.8,32.0,93,30.22,10.0,Calm,Calm,-,N/A,,Clear,0,2013-05-10 12:35:00
6:15 AM,33.8,32.0,93,30.23,10.0,Calm,Calm,-,N/A,,Clear,0,2013-05-10 13:15:00
6:35 AM,33.8,32.0,93,30.23,10.0,Calm,Calm,-,N/A,,Clear,0,2013-05-10 13:35:00
6:55 AM,35.6,32.0,87,30.24,10.0,Calm,Calm,-,N/A,,Clear,0,2013-05-10 13:55:00
7:15 AM,37.4,32.0,81,30.24,10.0,Calm,Calm,-,N/A,,Clear,0,2013-05-10 14:15:00
7:35 AM,42.8,33.8,70,30.25,10.0,ENE,3.5,-,N/A,,Clear,70,2013-05-10 14:35:00
7:55 AM,46.4,35.6,66,30.25,10.0,East,5.8,-,N/A,,Clear,90,2013-05-10 14:55:00
8:15 AM,50.0,35.6,58,30.25,10.0,ENE,8.1,-,N/A,,Clear,60,2013-05-10 15:15:00
8:35 AM,51.8,32.0,47,30.26,10.0,NE,10.4,17.3,N/A,,Clear,50,2013-05-10 15:35:00
8:55 AM,51.8,32.0,47,30.26,10.0,NNE,9.2,-,N/A,,Clear,30,2013-05-10 15:55:00
9:15 AM,53.6,32.0,44,30.27,10.0,NE,13.8,17.3,N/A,,Clear,50,2013-05-10 16:15:00
9:35 AM,53.6,32.0,44,30.27,10.0,ENE,10.4,18.4,N/A,,Clear,70,2013-05-10 16:35:00
10:15 AM,55.4,28.4,36,30.28,10.0,ENE,12.7,20.7,N/A,,Clear,60,2013-05-10 17:15:00
10:35 AM,55.4,28.4,36,30.29,10.0,ENE,16.1,21.9,N/A,,Clear,70,2013-05-10 17:35:00
10:55 AM,55.4,28.4,36,30.29,10.0,NE,13.8,19.6,N/A,,Clear,50,2013-05-10 17:55:00
11:15 AM,57.2,28.4,33,30.30,10.0,ENE,17.3,21.9,N/A,,Clear,70,2013-05-10 18:15:00
11:35 AM,57.2,30.2,36,30.30,10.0,ENE,13.8,21.9,N/A,,Clear,60,2013-05-10 18:35:00
11:55 AM,59.0,30.2,34,30.30,10.0,ENE,17.3,26.5,N/A,,Scattered Clouds,70,2013-05-10 18:55:00
12:15 PM,59.0,30.2,34,30.30,10.0,ENE,18.4,23.0,N/A,,Clear,60,2013-05-10 19:15:00
12:35 PM,59.0,30.2,34,30.30,10.0,NE,11.5,26.5,N/A,,Clear,40,2013-05-10 19:35:00
12:55 PM,60.8,30.2,31,30.30,10.0,NE,13.8,25.3,N/A,,Clear,40,2013-05-10 19:55:00
1:15 PM,60.8,30.2,31,30.30,10.0,NE,15.0,24.2,N/A,,Scattered Clouds,50,2013-05-10 20:15:00
1:35 PM,60.8,30.2,31,30.30,10.0,ENE,15.0,21.9,N/A,,Scattered Clouds,70,2013-05-10 20:35:00
1:55 PM,60.8,28.4,29,30.30,10.0,ENE,5.8,20.7,N/A,,Clear,60,2013-05-10 20:55:00
2:15 PM,60.8,28.4,29,30.29,10.0,North,6.9,18.4,N/A,,Scattered Clouds,10,2013-05-10 21:15:00
2:35 PM,62.6,30.2,30,30.29,10.0,North,8.1,18.4,N/A,,Mostly Cloudy,10,2013-05-10 21:35:00
2:55 PM,60.8,26.6,27,30.29,10.0,NE,8.1,21.9,N/A,,Mostly Cloudy,40,2013-05-10 21:55:00
3:15 PM,60.8,24.8,25,30.28,10.0,NE,10.4,20.7,N/A,,Scattered Clouds,40,2013-05-10 22:15:00
3:35 PM,60.8,26.6,27,30.28,10.0,ENE,13.8,24.2,N/A,,Scattered Clouds,70,2013-05-10 22:35:00
3:55 PM,62.6,24.8,24,30.27,10.0,ENE,11.5,20.7,N/A,,Scattered Clouds,70,2013-05-10 22:55:00
4:15 PM,62.6,21.2,20,30.28,10.0,NE,13.8,21.9,N/A,,Scattered Clouds,50,2013-05-10 23:15:00
4:35 PM,62.6,23.0,22,30.27,10.0,ENE,13.8,20.7,N/A,,Clear,60,2013-05-10 23:35:00
4:55 PM,62.6,23.0,22,30.28,10.0,NNE,5.8,21.9,N/A,,Clear,20,2013-05-10 23:55:00
5:15 PM,62.6,26.6,26,30.27,10.0,ENE,3.5,-,N/A,,Scattered Clouds,70,2013-05-11 00:15:00
5:35 PM,62.6,26.6,26,30.27,10.0,NE,6.9,-,N/A,,Scattered Clouds,40,2013-05-11 00:35:00
5:55 PM,62.6,24.8,24,30.27,10.0,North,8.1,19.6,N/A,,Clear,360,2013-05-11 00:55:00
6:15 PM,62.6,23.0,22,30.27,10.0,NNE,10.4,17.3,N/A,,Clear,30,2013-05-11 01:15:00
6:35 PM,62.6,23.0,22,30.28,10.0,North,4.6,-,N/A,,Clear,360,2013-05-11 01:35:00
6:55 PM,62.6,23.0,22,30.28,10.0,NE,4.6,-,N/A,,Clear,40,2013-05-11 01:55:00
7:15 PM,60.8,23.0,23,30.29,10.0,NNE,6.9,-,N/A,,Clear,30,2013-05-11 02:15:00
7:35 PM,60.8,23.0,23,30.29,10.0,ENE,9.2,-,N/A,,Clear,70,2013-05-11 02:35:00
7:55 PM,59.0,24.8,27,30.30,10.0,NE,4.6,-,N/A,,Clear,50,2013-05-11 02:55:00
8:15 PM,59.0,24.8,27,30.31,10.0,Calm,Calm,-,N/A,,Clear,0,2013-05-11 03:15:00
8:35 PM,57.2,23.0,27,30.31,10.0,Calm,Calm,-,N/A,,Clear,0,2013-05-11 03:35:00
8:55 PM,55.4,24.8,31,30.32,10.0,Calm,Calm,-,N/A,,Clear,0,2013-05-11 03:55:00
9:15 PM,53.6,24.8,33,30.32,10.0,Calm,Calm,-,N/A,,Clear,0,2013-05-11 04:15:00
9:35 PM,53.6,24.8,33,30.33,10.0,North,3.5,-,N/A,,Clear,360,2013-05-11 04:35:00
9:55 PM,51.8,24.8,35,30.33,10.0,North,4.6,-,N/A,,Clear,360,2013-05-11 04:55:00
10:15 PM,51.8,24.8,35,30.33,10.0,North,3.5,-,N/A,,Clear,10,2013-05-11 05:15:00
10:35 PM,50.0,26.6,40,30.33,10.0,Calm,Calm,-,N/A,,Clear,0,2013-05-11 05:35:00
10:55 PM,46.4,26.6,46,30.33,10.0,Calm,Calm,-,N/A,,Clear,0,2013-05-11 05:55:00
11:15 PM,46.4,26.6,46,30.33,10.0,Calm,Calm,-,N/A,,Clear,0,2013-05-11 06:15:00
11:35 PM,44.6,26.6,49,30.34,10.0,Calm,Calm,-,N/A,,Clear,0,2013-05-11 06:35:00
11:55 PM,44.6,26.6,49,30.34,10.0,Calm,Calm,-,N/A,,Clear,0,2013-05-11 06:55:00